Погода в Эт-Туре

Египет     28°14′21″N   33°37′32″E
темп.,
°C
ветер,
м/с
пор.,
м/с
влажн.,
%
обл.,
%
осадки,
мм/ч
давл.,
гПа
погр.,
м
15 августа, пн
пн1523:00+28сз12310 0.0 100322
02:00+26сз34400 0.0 100355
05:00+24сз34490 0.0 100459
08:00+29зсз33320 0.0 1005338
11:00+36з64200 0.0 10041031
14:00+37зсз87240 0.0 10031078
17:00+36зсз66240 0.0 1002616
20:00+30зсз11310 0.0 100323
16 августа, вт
вт1623:00+29зсз11340 0.0 100418
02:00+27сз23450 0.0 100435
05:00+24сз22530 0.0 100528
08:00+29зсз33390 0.0 1006292
11:00+36з65280 0.0 1005850
14:00+38з76250 0.0 10031077
17:00+37зсз66270 0.0 1003577
20:00+31ю11390 0.0 100317
17 августа, ср
ср1723:00+29ю23500 0.0 100434
02:00+27сз34540 0.0 100347
05:00+25сз33650 0.0 100446
08:00+29зсз44490 0.0 1005348
11:00+36з64320 0.0 1003778
14:00+38з76290 0.0 1002938
17:00+37сз77270 0.0 1001590
20:00+30сз22420 0.0 100215
18 августа, чт
чт1823:00+29юз12520 0.0 100227
02:00+26зсз34620 0.0 100256
05:00+25сз23620 0.0 100232
08:00+30зсз44440 0.0 1003334
11:00+36з64310 0.0 1002792
14:00+38з76260 0.0 1000914
17:00+39сз77200 0.0 1000719
20:00+30зсз23380 0.0 100122
19 августа, пт
пт1923:00+29ю23470 0.0 100121
02:00+27зюз12590 0.0 100126
05:00+27зсз33520 0.0 100222
08:00+31зсз32380 0.0 1003292
11:00+37з54270 0.0 1002875
14:00+40з64190 0.0 10011441
17:00+39сз65170 0.0 10011189
20:00+33ссз44230 0.0 100227